Location: Bílinka
(49.3579°N, 14.3767°E)
Time: 01:00:58
(UTC+00:00)

Cosmos 1455 - Pass Details

Date: 28 January 2023
Orbit: 480 x 502 km, 82.5° (Epoch: 31 March)

Event Time Altitude Azimuth Distance (km) Brightness Sun altitude
Rises 16:21:34 0° 349° (NNW) 2,630 5.7 -5.3°
Reaches altitude 10° 16:23:42 10° 348° (NNW) 1,743 4.8 -5.6°
Maximum altitude 16:27:31 80° 263° (W) 529 2.4 -6.2°
Drops below altitude 10° 16:31:20 10° 176° (S) 1,737 5.1 -6.8°
Sets 16:33:24 0° 175° (S) 2,599 6.0 -7.1°
